Time,TemperatureF,DewpointF,PressureIn,WindDirection,WindDirectionDegrees,WindSpeedMPH,WindSpeedGustMPH,Humidity,HourlyPrecipIn,Conditions,Clouds,dailyrainin,SoftwareType,DateUTC
2013-06-25 00:04:00,66.8,63.0,30.18,South,191,0.0,3.0,86,0.00,,,0.00,weatherlink.com 1.10,2013-06-25 04:04:00,
2013-06-25 00:19:00,66.9,63.0,30.18,ENE,59,2.0,4.0,86,0.00,,,0.00,weatherlink.com 1.10,2013-06-25 04:19:00,
2013-06-25 00:34:00,66.7,62.0,30.18,NE,49,1.0,4.0,86,0.00,,,0.00,weatherlink.com 1.10,2013-06-25 04:34:00,
2013-06-25 00:49:00,66.2,62.0,30.18,NE,49,2.0,3.0,87,0.00,,,0.00,weatherlink.com 1.10,2013-06-25 04:49:00,
2013-06-25 01:04:00,66.1,62.0,30.19,NE,49,0.0,2.0,86,0.00,,,0.00,weatherlink.com 1.10,2013-06-25 05:04:00,
2013-06-25 01:19:00,66.1,62.0,30.18,NE,49,0.0,4.0,86,0.00,,,0.00,weatherlink.com 1.10,2013-06-25 05:19:00,
2013-06-25 01:34:00,66.0,62.0,30.17,NE,49,0.0,3.0,86,0.00,,,0.00,weatherlink.com 1.10,2013-06-25 05:34:00,
2013-06-25 01:49:00,65.6,61.0,30.17,ENE,63,2.0,5.0,85,0.00,,,0.00,weatherlink.com 1.10,2013-06-25 05:49:00,
2013-06-25 02:04:00,66.1,62.0,30.17,East,101,0.0,1.0,85,0.00,,,0.00,weatherlink.com 1.10,2013-06-25 06:04:00,
2013-06-25 02:19:00,65.4,62.0,30.17,East,101,0.0,1.0,87,0.00,,,0.00,weatherlink.com 1.10,2013-06-25 06:19:00,
2013-06-25 02:34:00,64.8,61.0,30.16,East,101,0.0,0.0,87,0.00,,,0.00,weatherlink.com 1.10,2013-06-25 06:34:00,
2013-06-25 02:49:00,64.3,61.0,30.16,East,101,1.0,2.0,89,0.00,,,0.00,weatherlink.com 1.10,2013-06-25 06:49:00,
2013-06-25 03:04:00,64.5,61.0,30.15,East,101,2.0,3.0,87,0.00,,,0.00,weatherlink.com 1.10,2013-06-25 07:04:00,
2013-06-25 03:19:00,64.8,61.0,30.14,NE,52,2.0,4.0,87,0.00,,,0.00,weatherlink.com 1.10,2013-06-25 07:19:00,
2013-06-25 03:34:00,64.8,61.0,30.15,NE,52,0.0,3.0,88,0.00,,,0.00,weatherlink.com 1.10,2013-06-25 07:34:00,
2013-06-25 03:49:00,64.5,61.0,30.14,NE,52,0.0,0.0,89,0.00,,,0.00,weatherlink.com 1.10,2013-06-25 07:49:00,
2013-06-25 04:04:00,64.3,61.0,30.14,NE,52,0.0,2.0,89,0.00,,,0.00,weatherlink.com 1.10,2013-06-25 08:04:00,
2013-06-25 04:19:00,64.3,61.0,30.14,NE,52,2.0,3.0,88,0.00,,,0.00,weatherlink.com 1.10,2013-06-25 08:19:00,
2013-06-25 04:34:00,64.8,61.0,30.14,NE,54,1.0,2.0,87,0.00,,,0.00,weatherlink.com 1.10,2013-06-25 08:34:00,
2013-06-25 04:49:00,64.9,61.0,30.14,NE,54,0.0,3.0,87,0.00,,,0.00,weatherlink.com 1.10,2013-06-25 08:49:00,
2013-06-25 05:04:00,64.7,61.0,30.13,ENE,63,2.0,3.0,88,0.00,,,0.00,weatherlink.com 1.10,2013-06-25 09:04:00,
2013-06-25 05:20:00,64.4,61.0,30.14,ENE,63,2.0,4.0,87,0.00,,,0.00,weatherlink.com 1.10,2013-06-25 09:20:00,
2013-06-25 05:35:00,64.3,60.0,30.14,ENE,63,2.0,3.0,87,0.00,,,0.00,weatherlink.com 1.10,2013-06-25 09:35:00,
2013-06-25 05:50:00,64.1,60.0,30.14,NE,55,2.0,6.0,86,0.00,,,0.00,weatherlink.com 1.10,2013-06-25 09:50:00,
2013-06-25 06:05:00,64.5,60.0,30.15,SE,124,1.0,3.0,85,0.00,,,0.00,weatherlink.com 1.10,2013-06-25 10:05:00,
2013-06-25 06:20:00,64.7,60.0,30.15,ENE,67,3.0,5.0,84,0.00,,,0.00,weatherlink.com 1.10,2013-06-25 10:20:00,
2013-06-25 06:35:00,64.9,60.0,30.15,SSE,158,0.0,6.0,84,0.00,,,0.00,weatherlink.com 1.10,2013-06-25 10:35:00,
2013-06-25 06:50:00,65.0,60.0,30.16,ENE,76,2.0,5.0,84,0.00,,,0.00,weatherlink.com 1.10,2013-06-25 10:50:00,
2013-06-25 07:05:00,65.1,60.0,30.16,ENE,65,0.0,4.0,83,0.00,,,0.00,weatherlink.com 1.10,2013-06-25 11:05:00,
2013-06-25 07:20:00,64.7,60.0,30.17,ENE,64,0.0,3.0,85,0.00,,,0.00,weatherlink.com 1.10,2013-06-25 11:20:00,
2013-06-25 07:35:00,64.3,60.0,30.17,East,100,5.0,5.0,85,0.00,,,0.00,weatherlink.com 1.10,2013-06-25 11:35:00,
2013-06-25 07:50:00,65.3,60.0,30.17,ESE,115,4.0,6.0,83,0.00,,,0.00,weatherlink.com 1.10,2013-06-25 11:50:00,
2013-06-25 08:05:00,65.9,60.0,30.17,NE,53,4.0,5.0,82,0.00,,,0.00,weatherlink.com 1.10,2013-06-25 12:05:00,
2013-06-25 08:20:00,65.9,61.0,30.17,ENE,71,0.0,3.0,83,0.00,,,0.00,weatherlink.com 1.10,2013-06-25 12:20:00,
2013-06-25 08:35:00,66.1,61.0,30.17,ENE,71,0.0,3.0,84,0.00,,,0.00,weatherlink.com 1.10,2013-06-25 12:35:00,
2013-06-25 08:50:00,66.8,61.0,30.17,North,359,0.0,2.0,81,0.00,,,0.00,weatherlink.com 1.10,2013-06-25 12:50:00,
2013-06-25 09:05:00,67.2,61.0,30.18,South,177,0.0,3.0,81,0.00,,,0.00,weatherlink.com 1.10,2013-06-25 13:05:00,
2013-06-25 09:20:00,68.2,62.0,30.18,SW,235,2.0,2.0,80,0.00,,,0.00,weatherlink.com 1.10,2013-06-25 13:20:00,
2013-06-25 09:35:00,69.3,61.0,30.18,SSW,203,1.0,4.0,76,0.00,,,0.00,weatherlink.com 1.10,2013-06-25 13:35:00,
2013-06-25 09:50:00,70.0,63.0,30.18,SW,224,0.0,2.0,77,0.00,,,0.00,weatherlink.com 1.10,2013-06-25 13:50:00,
2013-06-25 10:05:00,70.8,62.0,30.18,SSW,197,0.0,5.0,74,0.00,,,0.00,weatherlink.com 1.10,2013-06-25 14:05:00,
2013-06-25 10:20:00,71.2,62.0,30.18,South,178,0.0,2.0,72,0.00,,,0.00,weatherlink.com 1.10,2013-06-25 14:20:00,
2013-06-25 10:35:00,70.8,62.0,30.18,WSW,240,0.0,3.0,74,0.00,,,0.00,weatherlink.com 1.10,2013-06-25 14:35:00,
2013-06-25 10:50:00,70.9,62.0,30.18,SSW,199,0.0,2.0,73,0.00,,,0.00,weatherlink.com 1.10,2013-06-25 14:50:00,
2013-06-25 11:05:00,72.1,62.0,30.18,SSW,200,1.0,5.0,70,0.00,,,0.00,weatherlink.com 1.10,2013-06-25 15:05:00,
2013-06-25 11:20:00,72.6,63.0,30.17,NE,44,2.0,5.0,73,0.00,,,0.00,weatherlink.com 1.10,2013-06-25 15:20:00,
2013-06-25 11:35:00,72.2,64.0,30.17,SW,219,0.0,4.0,74,0.00,,,0.00,weatherlink.com 1.10,2013-06-25 15:35:00,
2013-06-25 11:50:00,70.9,63.0,30.17,WNW,300,2.0,2.0,77,0.00,,,0.00,weatherlink.com 1.10,2013-06-25 15:50:00,
2013-06-25 12:05:00,70.9,64.0,30.17,WNW,286,0.0,3.0,78,0.00,,,0.00,weatherlink.com 1.10,2013-06-25 16:05:00,
2013-06-25 12:20:00,70.8,64.0,30.17,WNW,286,0.0,0.0,79,0.00,,,0.00,weatherlink.com 1.10,2013-06-25 16:20:00,
2013-06-25 12:35:00,69.2,66.0,30.17,North,8,1.0,3.0,90,0.08,,,0.08,weatherlink.com 1.10,2013-06-25 16:35:00,
2013-06-25 12:50:00,69.9,67.0,30.16,SSW,201,0.0,3.0,90,0.08,,,0.08,weatherlink.com 1.10,2013-06-25 16:50:00,
2013-06-25 13:05:00,69.7,66.0,30.16,SW,225,2.0,3.0,88,0.08,,,0.08,weatherlink.com 1.10,2013-06-25 17:05:00,
2013-06-25 13:20:00,67.7,65.0,30.16,West,266,0.0,3.0,90,0.11,,,0.11,weatherlink.com 1.10,2013-06-25 17:20:00,
2013-06-25 13:36:00,67.1,65.0,30.16,West,276,1.0,2.0,92,0.03,,,0.11,weatherlink.com 1.10,2013-06-25 17:36:00,
2013-06-25 13:51:00,65.2,63.0,30.15,ENE,58,0.0,4.0,91,0.04,,,0.12,weatherlink.com 1.10,2013-06-25 17:51:00,
2013-06-25 14:06:00,64.3,63.0,30.15,ENE,76,2.0,3.0,94,0.13,,,0.21,weatherlink.com 1.10,2013-06-25 18:06:00,
2013-06-25 14:21:00,63.7,62.0,30.14,NE,43,2.0,3.0,95,0.13,,,0.24,weatherlink.com 1.10,2013-06-25 18:21:00,
2013-06-25 14:36:00,65.2,64.0,30.14,NE,45,0.0,3.0,97,0.13,,,0.24,weatherlink.com 1.10,2013-06-25 18:36:00,
2013-06-25 14:51:00,67.5,66.0,30.14,SE,129,0.0,1.0,96,0.11,,,0.24,weatherlink.com 1.10,2013-06-25 18:51:00,
2013-06-25 15:06:00,68.3,67.0,30.13,ESE,108,0.0,3.0,95,0.03,,,0.24,weatherlink.com 1.10,2013-06-25 19:06:00,
2013-06-25 15:21:00,70.1,66.0,30.13,SSW,193,1.0,4.0,87,0.00,,,0.24,weatherlink.com 1.10,2013-06-25 19:21:00,
2013-06-25 15:36:00,70.9,66.0,30.13,South,188,0.0,2.0,85,0.00,,,0.24,weatherlink.com 1.10,2013-06-25 19:36:00,
2013-06-25 15:51:00,71.1,65.0,30.12,SSW,198,1.0,4.0,80,0.00,,,0.24,weatherlink.com 1.10,2013-06-25 19:51:00,
2013-06-25 16:06:00,70.6,66.0,30.12,SSW,198,0.0,1.0,86,0.00,,,0.24,weatherlink.com 1.10,2013-06-25 20:06:00,
2013-06-25 16:21:00,71.4,67.0,30.12,SSW,198,2.0,3.0,85,0.00,,,0.24,weatherlink.com 1.10,2013-06-25 20:21:00,
2013-06-25 16:36:00,71.5,64.0,30.11,East,84,0.0,3.0,78,0.00,,,0.24,weatherlink.com 1.10,2013-06-25 20:36:00,
2013-06-25 16:51:00,71.6,66.0,30.12,East,82,0.0,1.0,81,0.00,,,0.24,weatherlink.com 1.10,2013-06-25 20:51:00,
2013-06-25 17:06:00,70.6,65.0,30.11,East,82,0.0,1.0,81,0.00,,,0.24,weatherlink.com 1.10,2013-06-25 21:06:00,
2013-06-25 17:21:00,70.8,65.0,30.11,East,82,1.0,2.0,81,0.00,,,0.24,weatherlink.com 1.10,2013-06-25 21:21:00,
2013-06-25 17:36:00,70.8,65.0,30.10,East,82,0.0,3.0,81,0.00,,,0.24,weatherlink.com 1.10,2013-06-25 21:36:00,
2013-06-25 17:51:00,70.5,66.0,30.08,NE,36,0.0,3.0,85,0.00,,,0.24,weatherlink.com 1.10,2013-06-25 21:51:00,
2013-06-25 18:06:00,69.4,65.0,30.08,SW,229,1.0,4.0,87,0.00,,,0.24,weatherlink.com 1.10,2013-06-25 22:06:00,
2013-06-25 18:21:00,69.2,65.0,30.08,SW,229,0.0,0.0,87,0.00,,,0.24,weatherlink.com 1.10,2013-06-25 22:21:00,
2013-06-25 18:36:00,69.6,65.0,30.08,SW,229,0.0,0.0,85,0.00,,,0.24,weatherlink.com 1.10,2013-06-25 22:36:00,
2013-06-25 18:51:00,69.1,66.0,30.08,SW,229,0.0,0.0,88,0.00,,,0.24,weatherlink.com 1.10,2013-06-25 22:51:00,
2013-06-25 19:06:00,69.0,66.0,30.09,SW,229,0.0,0.0,89,0.00,,,0.24,weatherlink.com 1.10,2013-06-25 23:06:00,
2013-06-25 19:21:00,69.2,65.0,30.09,SW,229,0.0,1.0,86,0.00,,,0.24,weatherlink.com 1.10,2013-06-25 23:21:00,
2013-06-25 19:36:00,69.2,65.0,30.09,SW,229,0.0,1.0,85,0.00,,,0.24,weatherlink.com 1.10,2013-06-25 23:36:00,
2013-06-25 19:51:00,69.1,65.0,30.09,ENE,57,0.0,3.0,86,0.00,,,0.24,weatherlink.com 1.10,2013-06-25 23:51:00,
2013-06-25 20:06:00,69.2,66.0,30.09,ENE,57,0.0,0.0,88,0.00,,,0.24,weatherlink.com 1.10,2013-06-26 00:06:00,
2013-06-25 20:21:00,69.3,65.0,30.10,ENE,57,0.0,0.0,87,0.00,,,0.24,weatherlink.com 1.10,2013-06-26 00:21:00,
2013-06-25 20:36:00,69.0,66.0,30.10,ENE,57,0.0,0.0,89,0.00,,,0.24,weatherlink.com 1.10,2013-06-26 00:36:00,
2013-06-25 20:51:00,67.9,65.0,30.10,ENE,57,0.0,1.0,90,0.00,,,0.24,weatherlink.com 1.10,2013-06-26 00:51:00,
2013-06-25 21:06:00,66.8,64.0,30.09,ENE,57,1.0,2.0,91,0.00,,,0.24,weatherlink.com 1.10,2013-06-26 01:06:00,
2013-06-25 21:21:00,66.0,64.0,30.10,ENE,57,2.0,3.0,92,0.00,,,0.24,weatherlink.com 1.10,2013-06-26 01:21:00,
2013-06-25 21:36:00,65.7,64.0,30.10,ENE,57,0.0,2.0,93,0.00,,,0.24,weatherlink.com 1.10,2013-06-26 01:36:00,
2013-06-25 21:51:00,65.4,63.0,30.10,ENE,57,1.0,2.0,93,0.00,,,0.24,weatherlink.com 1.10,2013-06-26 01:51:00,
2013-06-25 22:06:00,65.0,63.0,30.10,ENE,57,1.0,2.0,92,0.00,,,0.24,weatherlink.com 1.10,2013-06-26 02:06:00,
2013-06-25 22:21:00,65.0,63.0,30.11,ENE,57,1.0,2.0,92,0.00,,,0.24,weatherlink.com 1.10,2013-06-26 02:21:00,
2013-06-25 22:36:00,65.0,63.0,30.11,NE,48,3.0,3.0,93,0.00,,,0.24,weatherlink.com 1.10,2013-06-26 02:36:00,
2013-06-25 22:51:00,65.3,63.0,30.10,East,79,5.0,5.0,91,0.00,,,0.24,weatherlink.com 1.10,2013-06-26 02:51:00,
2013-06-25 23:06:00,66.1,63.0,30.10,NE,44,3.0,5.0,89,0.00,,,0.24,weatherlink.com 1.10,2013-06-26 03:06:00,
2013-06-25 23:21:00,66.3,62.0,30.10,ENE,58,0.0,4.0,86,0.00,,,0.24,weatherlink.com 1.10,2013-06-26 03:21:00,
2013-06-25 23:36:00,66.3,62.0,30.10,ENE,61,1.0,3.0,85,0.00,,,0.24,weatherlink.com 1.10,2013-06-26 03:36:00,
2013-06-25 23:51:00,66.4,62.0,30.10,NE,53,2.0,4.0,85,0.00,,,0.24,weatherlink.com 1.10,2013-06-26 03:51:00,